Regional Weather Roundup
Issued by NWS

Home | Current Version | Previous Version | Graphics & Text | Print | Product List | Glossary On
Versions: 1 2 3 4 5 6 7 8 9 10 11 12 13 14 15 16 17 18 19 20 21 22 23 24 25 26 27 28 29 30 31 32 33 34 35 36 37 38 39 40 41 42 43 44 45 46 47 48 49 50
000
ASUS43 KLSX 210959
RWRMO

WEATHER SUMMARY FOR MISSOURI
NATIONAL WEATHER SERVICE SPRINGFIELD MO
500 AM CDT SUN SEP 21 2014

NOTE: "FAIR" INDICATES FEW OR NO CLOUDS BELOW 12,000 FEET WITH NO
       SIGNIFICANT WEATHER AND/OR OBSTRUCTIONS TO VISIBILITY.
       CURRENT SKY AND/OR WEATHER CONDITIONS ARE NOT AVAILABLE FOR
       CHILLICOTHE AND FARMINGTON.

MOZ001>031-035>038-043-044-053-054-211100-
...NORTHERN AND WESTERN MISSOURI...

CITY           SKY/WX    TMP DP  RH WIND       PRES   REMARKS
KANSAS CTY INT CLEAR     60  52  74 NE5       30.09R
KANSAS C DTWN  CLEAR     64  52  64 N5        30.08R
LEE`S SUMMIT   CLEAR     61  48  62 N6        30.09S
ST JOSEPH      CLEAR     51  49  92 NW3       30.08S
KIRKSVILLE     CLEAR     55  51  86 NW6       30.03R

$$
MOZ066>068-077>081-088>096-101>105-211100-
...SOUTHWEST MISSOURI...

CITY           SKY/WX    TMP DP  RH WIND       PRES   REMARKS
SPRINGFIELD    LGT RAIN  72  68  87 W5        30.03S
JOPLIN         LGT RAIN  71  69  93 SW9       30.04R

$$
MOZ032>034-039>042-045>050-055>058-069>072-211100-
...CENTRAL MISSOURI...

CITY           SKY/WX    TMP DP  RH WIND       PRES   REMARKS
COLUMBIA       CLEAR     64  58  80 N14       30.02R
JEFFERSON CITY CLEAR     71  66  84 NW9       29.99R
ROLLA          MOCLDY    71  68  90 NW7       29.99R
SEDALIA        CLEAR     64  54  69 N12       30.05R
OSAGE BEACH    PTCLDY    72  68  88 NW6       30.01R

$$
MOZ051-052-059>065-211100-
...EAST CENTRAL MISSOURI...

CITY           SKY/WX    TMP DP  RH WIND       PRES   REMARKS
ST LOUIS INTL  PTCLDY    73  68  84 W10       29.94R
SPIRIT OF STL  CLEAR     70  68  93 W6        29.94R
ST CHARLES     PTCLDY    71  67  87 NW13G20   29.93R

$$
MOZ072>076-082>087-097>100-106>115-211100-
...SOUTH CENTRAL AND SOUTHEAST MISSOURI...

CITY           SKY/WX    TMP DP  RH WIND       PRES   REMARKS
CAPE GIRARDEAU MOCLDY    70  67  90 SW6       29.93F
FARMINGTON     CLOUDY    72  68  88 W7        29.97S
POPLAR BLUFF   CLEAR     68  64  87 SW6       29.94F
WEST PLAINS    PTCLDY    69  65  86 W6        30.02S

$$



USA.gov is the U.S. government's official web portal to all federal, state and local government web resources and services.